Location: ???????
(55.8930°N, 38.0586°E)
Time: 03:25:31
(UTC+00:00)

Cosmos 1461 - Visible Passes

Search period start: 19 July 2024 00:00
Search period end: 29 July 2024 00:00
Orbit: 499 x 577 km, 65.0° (Epoch: 18 July)

Date Brightness Start Highest point End Pass type
(mag) Time Alt. Az. Time Alt. Az. Time Alt. Az.
19 Jul 4.7 18:55:20 10° NW 18:58:34 25° NNE 19:01:47 10° ENE visible
19 Jul 2.9 20:33:26 10° NW 20:37:15 68° NE 20:40:48 12° ESE visible
19 Jul 4.0 22:11:58 10° WNW 22:15:02 23° WSW 22:16:12 20° SSW visible
20 Jul 4.6 18:46:43 10° NW 18:49:59 26° NNE 18:53:16 10° ENE visible
20 Jul 2.7 20:24:47 10° NW 20:28:37 76° NE 20:31:52 14° SE visible
20 Jul 4.2 22:03:28 10° WNW 22:06:20 20° WSW 22:07:17 19° SW visible
21 Jul 2.6 20:16:08 10° NW 20:19:58 86° NE 20:22:59 16° SE visible
21 Jul 4.4 21:54:57 10° WNW 21:57:36 18° WSW 21:58:23 17° SW visible
22 Jul 2.6 20:07:26 10° NW 20:11:15 85° SW 20:14:07 17° SE visible
22 Jul 4.5 21:46:28 10° WNW 21:48:48 16° WSW 21:49:31 15° SW visible
23 Jul 2.6 19:58:41 10° NW 20:02:30 75° SW 20:05:16 18° SE visible
23 Jul 4.7 21:38:01 10° W 21:39:58 14° WSW 21:40:40 13° SW visible
24 Jul 2.7 19:49:56 10° NW 19:53:43 66° SW 19:56:26 18° SSE visible
24 Jul 4.9 21:29:40 10° W 21:31:06 12° WSW 21:31:50 11° SW visible
25 Jul 2.9 19:41:08 10° NW 19:44:54 57° SW 19:47:36 18° SSE visible
25 Jul 5.1 21:21:51 10° WSW 21:22:12 10° WSW 21:22:33 10° WSW visible
26 Jul 3.1 19:32:19 10° NW 19:36:02 50° SW 19:38:48 17° SSE visible
27 Jul 3.3 19:23:28 10° WNW 19:27:07 44° SW 19:29:59 15° SSE visible
28 Jul 3.6 19:14:36 10° WNW 19:18:10 38° SW 19:21:12 13° SSE visible
